Time,TemperatureF,DewpointF,PressureIn,WindDirection,WindDirectionDegrees,WindSpeedMPH,WindSpeedGustMPH,Humidity,HourlyPrecipIn,Conditions,Clouds,dailyrainin,SolarRadiationWatts/m^2,SoftwareType,DateUTC
2013-03-17 00:02:00,46.0,35.0,30.09,WNW,296,24.0,40.0,64,0.00,,,0.00,0.000000,,2013-03-17 07:02:00,
2013-03-17 00:12:00,46.0,35.0,30.09,WNW,296,24.0,40.0,64,0.00,,,0.00,0.000000,,2013-03-17 07:12:00,
2013-03-17 00:42:00,46.0,34.0,30.10,WNW,299,29.0,41.0,62,0.00,,,0.00,0.000000,,2013-03-17 07:42:00,
2013-03-17 00:52:00,46.0,34.0,30.10,WNW,299,29.0,41.0,62,0.00,,,0.00,0.000000,,2013-03-17 07:52:00,
2013-03-17 01:02:00,46.0,34.0,30.10,WNW,299,29.0,41.0,62,0.00,,,0.00,0.000000,,2013-03-17 08:02:00,
2013-03-17 01:12:00,46.0,34.0,30.10,WNW,299,29.0,41.0,62,0.00,,,0.00,0.000000,,2013-03-17 08:12:00,
2013-03-17 01:42:00,46.0,30.0,30.10,NW,308,26.0,41.0,53,0.00,,,0.00,0.000000,,2013-03-17 08:42:00,
2013-03-17 01:52:00,46.0,30.0,30.10,NW,308,26.0,41.0,53,0.00,,,0.00,0.000000,,2013-03-17 08:52:00,
2013-03-17 02:02:00,46.0,30.0,30.10,NW,308,26.0,41.0,53,0.00,,,0.00,0.000000,,2013-03-17 09:02:00,
2013-03-17 02:12:00,46.0,30.0,30.10,NW,308,26.0,41.0,53,0.00,,,0.00,0.000000,,2013-03-17 09:12:00,
2013-03-17 02:43:00,49.0,29.0,30.11,NW,317,24.0,47.0,46,0.00,,,0.00,0.000000,,2013-03-17 09:43:00,
2013-03-17 02:53:00,49.0,29.0,30.11,NW,317,24.0,47.0,46,0.00,,,0.00,0.000000,,2013-03-17 09:53:00,
2013-03-17 03:02:00,49.0,29.0,30.11,NW,317,24.0,47.0,46,0.00,,,0.00,0.000000,,2013-03-17 10:02:00,
2013-03-17 03:12:00,49.0,29.0,30.11,NW,317,24.0,47.0,46,0.00,,,0.00,0.000000,,2013-03-17 10:12:00,
2013-03-17 03:42:00,48.0,30.0,30.10,NW,324,21.0,33.0,49,0.00,,,0.00,0.000000,,2013-03-17 10:42:00,
2013-03-17 03:52:00,48.0,30.0,30.10,NW,324,21.0,33.0,49,0.00,,,0.00,0.000000,,2013-03-17 10:52:00,
2013-03-17 04:02:00,48.0,30.0,30.10,NW,324,21.0,33.0,49,0.00,,,0.00,0.000000,,2013-03-17 11:02:00,
2013-03-17 04:12:00,48.0,30.0,30.10,NW,324,21.0,33.0,49,0.00,,,0.00,0.000000,,2013-03-17 11:12:00,
2013-03-17 04:43:00,49.0,30.0,30.09,NNW,338,17.0,26.0,48,0.00,,,0.00,0.000000,,2013-03-17 11:43:00,
2013-03-17 04:52:00,49.0,30.0,30.09,NNW,338,17.0,26.0,48,0.00,,,0.00,0.000000,,2013-03-17 11:52:00,
2013-03-17 05:02:00,49.0,30.0,30.09,NNW,338,17.0,26.0,48,0.00,,,0.00,0.000000,,2013-03-17 12:02:00,
2013-03-17 05:12:00,49.0,30.0,30.09,NNW,338,17.0,26.0,48,0.00,,,0.00,0.000000,,2013-03-17 12:12:00,
2013-03-17 05:43:00,50.0,25.0,30.08,NNW,335,13.0,19.0,38,0.00,,,0.00,0.000000,,2013-03-17 12:43:00,
2013-03-17 05:52:00,50.0,25.0,30.08,NNW,335,13.0,19.0,38,0.00,,,0.00,0.000000,,2013-03-17 12:52:00,
2013-03-17 06:01:00,50.0,25.0,30.08,NNW,335,13.0,19.0,38,0.00,,,0.00,0.000000,,2013-03-17 13:01:00,
2013-03-17 06:12:00,50.0,25.0,30.08,NNW,335,13.0,19.0,38,0.00,,,0.00,0.000000,,2013-03-17 13:12:00,
2013-03-17 06:43:00,50.0,20.0,30.08,NNW,335,10.0,15.0,30,0.00,,,0.00,0.000000,,2013-03-17 13:43:00,
2013-03-17 06:52:00,50.0,20.0,30.08,NNW,335,10.0,15.0,30,0.00,,,0.00,0.000000,,2013-03-17 13:52:00,
2013-03-17 07:02:00,50.0,20.0,30.08,NNW,335,10.0,15.0,30,0.00,,,0.00,0.000000,,2013-03-17 14:02:00,
2013-03-17 07:11:00,50.0,20.0,30.08,NNW,335,10.0,15.0,30,0.00,,,0.00,0.000000,,2013-03-17 14:11:00,
2013-03-17 07:42:00,48.0,29.0,30.09,NW,325,9.0,11.0,48,0.00,,,0.00,0.000000,,2013-03-17 14:42:00,
2013-03-17 07:52:00,48.0,29.0,30.09,NW,325,9.0,11.0,48,0.00,,,0.00,0.000000,,2013-03-17 14:52:00,
2013-03-17 08:02:00,48.0,29.0,30.09,NW,325,9.0,11.0,48,0.00,,,0.00,0.000000,,2013-03-17 15:02:00,
2013-03-17 08:11:00,48.0,29.0,30.09,NW,325,9.0,11.0,48,0.00,,,0.00,0.000000,,2013-03-17 15:11:00,
2013-03-17 08:43:00,46.0,29.0,30.10,WNW,283,8.0,10.0,52,0.00,,,0.00,0.000000,,2013-03-17 15:43:00,
2013-03-17 08:53:00,46.0,29.0,30.10,WNW,283,8.0,10.0,52,0.00,,,0.00,0.000000,,2013-03-17 15:53:00,
2013-03-17 09:03:00,46.0,29.0,30.10,WNW,283,8.0,10.0,52,0.00,,,0.00,0.000000,,2013-03-17 16:03:00,
2013-03-17 09:12:00,46.0,29.0,30.10,WNW,283,8.0,10.0,52,0.00,,,0.00,0.000000,,2013-03-17 16:12:00,
2013-03-17 09:43:00,49.0,12.0,30.11,NNE,13,7.0,12.0,22,0.00,,,0.00,43.000000,,2013-03-17 16:43:00,
2013-03-17 09:52:00,49.0,12.0,30.11,NNE,13,7.0,12.0,22,0.00,,,0.00,43.000000,,2013-03-17 16:52:00,
2013-03-17 10:42:00,52.0,14.0,30.12,SSW,206,4.0,12.0,22,0.00,,,0.00,258.000000,,2013-03-17 17:42:00,
2013-03-17 10:53:00,52.0,14.0,30.12,SSW,206,4.0,12.0,22,0.00,,,0.00,258.000000,,2013-03-17 17:53:00,
2013-03-17 11:42:00,53.0,32.0,30.13,South,188,3.0,14.0,45,0.00,,,0.00,461.000000,,2013-03-17 18:42:00,
2013-03-17 11:52:00,53.0,32.0,30.13,South,188,3.0,14.0,45,0.00,,,0.00,461.000000,,2013-03-17 18:52:00,
2013-03-17 12:02:00,53.0,32.0,30.13,South,188,3.0,14.0,45,0.00,,,0.00,461.000000,,2013-03-17 19:02:00,
2013-03-17 12:12:00,53.0,32.0,30.13,South,188,3.0,14.0,45,0.00,,,0.00,461.000000,,2013-03-17 19:12:00,
2013-03-17 12:42:00,53.0,39.0,30.13,South,176,2.0,10.0,59,0.00,,,0.00,677.000000,,2013-03-17 19:42:00,
2013-03-17 12:53:00,53.0,39.0,30.13,South,176,2.0,10.0,59,0.00,,,0.00,677.000000,,2013-03-17 19:53:00,
2013-03-17 13:02:00,53.0,39.0,30.13,South,176,2.0,10.0,59,0.00,,,0.00,677.000000,,2013-03-17 20:02:00,
2013-03-17 13:12:00,53.0,39.0,30.13,South,176,2.0,10.0,59,0.00,,,0.00,677.000000,,2013-03-17 20:12:00,
2013-03-17 13:43:00,51.0,34.0,30.13,East,98,4.0,9.0,51,0.00,,,0.00,724.000000,,2013-03-17 20:43:00,
2013-03-17 13:52:00,51.0,34.0,30.13,East,98,4.0,9.0,51,0.00,,,0.00,724.000000,,2013-03-17 20:52:00,
2013-03-17 14:02:00,51.0,34.0,30.13,East,98,4.0,9.0,51,0.00,,,0.00,724.000000,,2013-03-17 21:02:00,
2013-03-17 14:12:00,51.0,34.0,30.13,East,98,4.0,9.0,51,0.00,,,0.00,724.000000,,2013-03-17 21:12:00,
2013-03-17 14:43:00,53.0,34.0,30.12,NNW,340,3.0,10.0,49,0.00,,,0.00,891.000000,,2013-03-17 21:43:00,
2013-03-17 14:52:00,53.0,34.0,30.12,NNW,340,3.0,10.0,49,0.00,,,0.00,891.000000,,2013-03-17 21:52:00,
2013-03-17 15:02:00,53.0,34.0,30.12,NNW,340,3.0,10.0,49,0.00,,,0.00,891.000000,,2013-03-17 22:02:00,
2013-03-17 15:12:00,53.0,34.0,30.12,NNW,340,3.0,10.0,49,0.00,,,0.00,891.000000,,2013-03-17 22:12:00,
2013-03-17 15:42:00,55.0,31.0,30.10,West,270,3.0,13.0,39,0.00,,,0.00,898.000000,,2013-03-17 22:42:00,
2013-03-17 15:52:00,55.0,31.0,30.10,West,270,3.0,13.0,39,0.00,,,0.00,898.000000,,2013-03-17 22:52:00,
2013-03-17 16:02:00,55.0,31.0,30.10,West,270,3.0,13.0,39,0.00,,,0.00,898.000000,,2013-03-17 23:02:00,
2013-03-17 16:12:00,55.0,31.0,30.10,West,270,3.0,13.0,39,0.00,,,0.00,898.000000,,2013-03-17 23:12:00,
2013-03-17 16:43:00,55.0,26.0,30.09,WSW,247,3.0,10.0,32,0.00,,,0.00,845.000000,,2013-03-17 23:43:00,
2013-03-17 16:52:00,55.0,26.0,30.09,WSW,247,3.0,10.0,32,0.00,,,0.00,845.000000,,2013-03-17 23:52:00,
2013-03-17 17:02:00,55.0,26.0,30.09,WSW,247,3.0,10.0,32,0.00,,,0.00,845.000000,,2013-03-18 00:02:00,
2013-03-17 17:11:00,55.0,26.0,30.09,WSW,247,3.0,10.0,32,0.00,,,0.00,845.000000,,2013-03-18 00:11:00,
2013-03-17 17:42:00,55.0,20.0,30.09,SW,220,2.0,14.0,25,0.00,,,0.00,750.000000,,2013-03-18 00:42:00,
2013-03-17 17:52:00,55.0,20.0,30.09,SW,220,2.0,14.0,25,0.00,,,0.00,750.000000,,2013-03-18 00:52:00,
2013-03-17 18:01:00,55.0,20.0,30.09,SW,220,2.0,14.0,25,0.00,,,0.00,750.000000,,2013-03-18 01:01:00,
2013-03-17 18:42:00,51.0,32.0,30.08,WNW,295,6.0,13.0,48,0.00,,,0.00,575.000000,,2013-03-18 01:42:00,
2013-03-17 18:52:00,51.0,32.0,30.08,WNW,295,6.0,13.0,48,0.00,,,0.00,575.000000,,2013-03-18 01:52:00,
2013-03-17 19:02:00,51.0,32.0,30.08,WNW,295,6.0,13.0,48,0.00,,,0.00,575.000000,,2013-03-18 02:02:00,
2013-03-17 19:12:00,51.0,32.0,30.08,WNW,295,6.0,13.0,48,0.00,,,0.00,575.000000,,2013-03-18 02:12:00,
2013-03-17 19:42:00,50.0,18.0,30.07,NW,313,10.0,17.0,28,0.00,,,0.00,316.000000,,2013-03-18 02:42:00,
2013-03-17 19:52:00,50.0,18.0,30.07,NW,313,10.0,17.0,28,0.00,,,0.00,316.000000,,2013-03-18 02:52:00,
2013-03-17 20:42:00,50.0,21.0,30.07,NNE,12,7.0,17.0,32,0.00,,,0.00,61.000000,,2013-03-18 03:42:00,
2013-03-17 20:53:00,50.0,21.0,30.07,NNE,12,7.0,17.0,32,0.00,,,0.00,61.000000,,2013-03-18 03:53:00,
2013-03-17 21:02:00,50.0,21.0,30.07,NNE,12,7.0,17.0,32,0.00,,,0.00,61.000000,,2013-03-18 04:02:00,
2013-03-17 21:12:00,50.0,21.0,30.07,NNE,12,7.0,17.0,32,0.00,,,0.00,61.000000,,2013-03-18 04:12:00,
2013-03-17 21:42:00,50.0,21.0,30.07,NNW,346,11.0,15.0,31,0.00,,,0.00,2.000000,,2013-03-18 04:42:00,
2013-03-17 21:52:00,50.0,21.0,30.07,NNW,346,11.0,15.0,31,0.00,,,0.00,2.000000,,2013-03-18 04:52:00,
2013-03-17 22:02:00,50.0,21.0,30.07,NNW,346,11.0,15.0,31,0.00,,,0.00,2.000000,,2013-03-18 05:02:00,
2013-03-17 22:12:00,50.0,21.0,30.07,NNW,346,11.0,15.0,31,0.00,,,0.00,2.000000,,2013-03-18 05:12:00,
2013-03-17 22:43:00,52.0,21.0,30.09,North,354,12.0,16.0,29,0.00,,,0.00,0.000000,,2013-03-18 05:43:00,
2013-03-17 22:52:00,52.0,21.0,30.09,North,354,12.0,16.0,29,0.00,,,0.00,0.000000,,2013-03-18 05:52:00,
2013-03-17 23:02:00,52.0,21.0,30.09,North,354,12.0,16.0,29,0.00,,,0.00,0.000000,,2013-03-18 06:02:00,
2013-03-17 23:12:00,52.0,21.0,30.09,North,354,12.0,16.0,29,0.00,,,0.00,0.000000,,2013-03-18 06:12:00,
2013-03-17 23:42:00,50.0,22.0,30.10,NNW,343,15.0,18.0,33,0.00,,,0.00,0.000000,,2013-03-18 06:42:00,
2013-03-17 23:52:00,50.0,22.0,30.10,NNW,343,15.0,18.0,33,0.00,,,0.00,0.000000,,2013-03-18 06:52:00,